TimeCDT,TemperatureF,Dew PointF,Humidity,Sea Level PressureIn,VisibilityMPH,Wind Direction,Wind SpeedMPH,Gust SpeedMPH,PrecipitationIn,Events,Conditions,WindDirDegrees,DateUTC
12:58 AM,57.6,52.5,83,30.05,10.0,South,5.8,-,N/A,,Clear,190,2013-05-07 05:58:00
1:58 AM,56.3,52.2,86,30.04,10.0,NNW,4.6,-,N/A,,Clear,340,2013-05-07 06:58:00
2:58 AM,53.2,52.0,95,30.03,10.0,NW,4.6,-,N/A,,Clear,320,2013-05-07 07:58:00
3:58 AM,53.1,51.6,95,30.03,10.0,NNW,3.5,-,N/A,,Clear,330,2013-05-07 08:58:00
4:58 AM,50.9,50.0,97,30.03,10.0,NNW,4.6,-,N/A,,Clear,330,2013-05-07 09:58:00
5:58 AM,50.7,50.4,99,30.04,10.0,NNW,5.8,-,N/A,,Clear,340,2013-05-07 10:58:00
6:58 AM,50.9,50.7,99,30.06,10.0,NNW,5.8,-,N/A,,Clear,330,2013-05-07 11:58:00
7:58 AM,54.9,54.3,98,30.07,10.0,NNW,3.5,-,N/A,,Clear,330,2013-05-07 12:58:00
8:58 AM,64.9,59.5,83,30.08,10.0,SSE,3.5,-,N/A,,Clear,160,2013-05-07 13:58:00
9:58 AM,69.4,61.9,77,30.09,10.0,SSW,5.8,-,N/A,,Clear,200,2013-05-07 14:58:00
10:58 AM,72.9,56.8,57,30.08,10.0,SSE,6.9,-,N/A,,Clear,150,2013-05-07 15:58:00
11:58 AM,75.7,55.6,49,30.07,10.0,SSE,12.7,-,N/A,,Clear,150,2013-05-07 16:58:00
12:58 PM,78.1,56.5,47,30.05,10.0,SE,8.1,-,N/A,,Clear,130,2013-05-07 17:58:00
1:58 PM,79.9,55.0,42,30.03,10.0,South,6.9,-,N/A,,Clear,190,2013-05-07 18:58:00
2:58 PM,81.7,53.1,37,30.00,10.0,SSE,11.5,-,N/A,,Clear,150,2013-05-07 19:58:00
3:58 PM,83.8,49.3,30,29.97,10.0,South,8.1,18.4,N/A,,Clear,190,2013-05-07 20:58:00
4:58 PM,84.0,51.3,32,29.95,10.0,SE,10.4,-,N/A,,Clear,140,2013-05-07 21:58:00
5:58 PM,83.3,50.9,32,29.94,10.0,SSE,5.8,-,N/A,,Clear,160,2013-05-07 22:58:00
6:58 PM,81.7,50.7,34,29.92,10.0,SSE,12.7,-,N/A,,Clear,150,2013-05-07 23:58:00
7:58 PM,77.4,51.8,41,29.93,10.0,SE,8.1,-,N/A,,Clear,130,2013-05-08 00:58:00
8:58 PM,72.5,51.8,48,29.94,10.0,ESE,5.8,-,N/A,,Clear,120,2013-05-08 01:58:00
9:58 PM,68.2,54.9,62,29.96,10.0,SE,8.1,-,N/A,,Partly Cloudy,140,2013-05-08 02:58:00
10:58 PM,70.0,58.5,67,29.98,10.0,SSE,9.2,-,N/A,,Scattered Clouds,150,2013-05-08 03:58:00
11:58 PM,68.5,59.7,73,29.99,10.0,SSE,9.2,-,N/A,,Clear,160,2013-05-08 04:58:00